Regional Weather Roundup
Issued by NWS Sterling, VA

Home | Current Version | Previous Version | Text Only | Print | Product List | Glossary Off
Versions: 1 2 3 4 5 6 7 8 9 10 11 12 13 14 15 16 17 18 19 20 21 22 23 24 25 26 27 28 29 30 31 32 33 34 35 36 37 38 39 40 41 42 43 44 45 46 47 48 49 50

000
ASUS41 KLWX 301710
RWRLWX

REGIONAL WEATHER ROUNDUP
NATIONAL WEATHER SERVICE BALTIMORE MD/WASHINGTON DC
100 PM EDT MON MAR 30 2015

Note: "FAIR" indicates few or no clouds below 12,000 feet
with no significant weather and/or obstructions to visibility.
 TC=TEMPERATURE CELSIUS

 * =Non NWS site. Station does not report precipitation (e.g. rain,
    snow, etc.), thunder, or fog.

DCZ001-MDZ009-015-VAZ040>042-051-053>054-301800-
WASHINGTON METRO

CITY           SKY/WX    TMP DP  RH WIND       PRES   REMARKS
WASHINGTON NAT CLOUDY    58  30  34 VRB6G17   29.91F
DULLES         PTSUNNY   56  32  40 W9G18     29.89F
ANDREWS AFB    CLOUDY    54  29  38 NW8       29.89S
FT BELVOIR     CLOUDY    57  33  40 W12G18    29.91S
QUANTICO       CLOUDY    60  33  36 W15       29.90F
COLLEGE PARK*  CLOUDY    54  30  40 SW10G17   29.89F
LEESBURG*      PTSUNNY   57  32  38 W14G22    29.89F
MANASSAS*      PTSUNNY   57  34  41 SW10G16   29.90F
GAITHERSBURG*  CLOUDY    54  28  37 W14G28    29.91F

$$

MDZ006>007-011-014-301800-
BALTIMORE METRO

CITY           SKY/WX    TMP DP  RH WIND       PRES   REMARKS
BWI AIRPORT    CLOUDY    56  29  35 W17G25    29.87F
MD SCIENCE CTR   N/A     56  28  34 MISG      29.91F
MARTIN STATE   CLOUDY    55  30  38 SW15      29.89F
ANNAPOLIS      CLOUDY    55  28  35 W10G17    29.89F

$$

MDZ012-015-019>023-301800-
MARYLAND EASTERN SHORE

CITY           SKY/WX    TMP DP  RH WIND       PRES   REMARKS
OCEAN CITY     CLOUDY    48  36  63 W14       29.91F
SALISBURY      CLOUDY    50  36  58 SW14G21   29.91F
BAY BRIDGE AP*   N/A     52  27  37 SW8       29.89F
CAMBRIDGE*     CLOUDY    54  34  47 SW7       29.89F
EASTON*        MOSUNNY   54  32  43 SW12      29.93F

$$

MDZ017>025-301800-
SOUTHERN MARYLAND

CITY           SKY/WX    TMP DP  RH WIND       PRES   REMARKS
PATUXENT RIVER PTSUNNY   56  31  38 SW14G24   29.90F
ST INIGOES     PTSUNNY   53  32  44 SW10      29.91F
LEONARDTOWN*   PTSUNNY   54  30  40 W12G20    29.91F

$$

MDZ003>005-301800-
NORTH CENTRAL MARYLAND

CITY           SKY/WX    TMP DP  RH WIND       PRES   REMARKS
FREDERICK*     CLOUDY   N/A N/A N/A W17       29.91F
HAGERSTOWN APT MOSUNNY   55  26  32 W16G22    29.87S
WESTMINSTER*   MOSUNNY   52  28  40 W10G24    29.86F

$$

MDZ501>502-301800-
WESTERN MARYLAND

CITY           SKY/WX    TMP DP  RH WIND       PRES   REMARKS
OAKLAND*       PTSUNNY   41  30  65 W21G32    29.88S
CUMBERLAND*    MOSUNNY   54  27  35 W16G23    29.94F

$$

VAZ025>031-301800-
SHENANDOAH VALLEY

CITY           SKY/WX    TMP DP  RH WIND       PRES   REMARKS
WINCHESTER*    MOSUNNY   55  18  22 NW18G28   29.90R
FRONT ROYAL*   FAIR      55  27  33 W14G22    29.89R
LURAY*         FAIR      59  30  33 W18G24    29.90S
NEW MARKET*    FAIR      55  26  31 W8G21     29.91R
STAUNTON*      PTSUNNY   58  28  32 NW13G24   29.93S
WAYNESBORO*    PTSUNNY   54  30  39 W10G25    29.91S

$$

WVZ021-048>050-054>055-301800-
EASTERN WEST VIRGINIA PANHANDLE

CITY           SKY/WX    TMP DP  RH WIND       PRES   REMARKS
MARTINSBURG    SUNNY     57  26  30 NW17G30   29.89S
PETERSBURG*    MOSUNNY   53  26  34 W6        29.94S

$$

VAZ036>039-050-301800-
CENTRAL FOOTHILLS

CITY           SKY/WX    TMP DP  RH WIND       PRES   REMARKS
CHARLOTTESVILL PTSUNNY   58  32  37 W10G21    29.90F
CULPEPER*      PTSUNNY   59  36  41 W12G17    29.90F
ORANGE*        CLOUDY    61  36  39 SW13G22   29.91F
GORDONSVILLE*  PTSUNNY   58  35  41 SW13G21   29.90F
WARRENTON*     PTSUNNY   62  42  48 W9G16     29.90S

$$

VAZ055>057-301800-
NORTH AND CENTRAL PIEDMONT

CITY           SKY/WX    TMP DP  RH WIND       PRES   REMARKS
FREDERICKSBRG* CLOUDY    60  34  37 SW9       29.90S
STAFFORD*      CLOUDY    58  31  35 W9G16     29.94S

$$

NCZ024-NYZ072-PAZ021-071-VAZ022-071-301800-
OTHER REGIONAL OBSERVATIONS

CITY           SKY/WX    TMP DP  RH WIND       PRES   REMARKS
NEW YORK CITY  PTSUNNY   46  30  53 SW6       29.83F
PHILADELPHIA   CLOUDY    52  27  38 SW14      29.85F
PITTSBURGH     PTSUNNY   48  29  47 W15G26    29.94R
ROANOKE        PTSUNNY   57  31  37 NW20G37   29.98F
RICHMOND       PTSUNNY   58  33  39 W12       29.93F
RALEIGH        PTSUNNY   48  44  86 W14       30.04F

$$

ANZ530>537-301800-
MARINE OBSERVATIONS

STATION/POSITION TIME  TEMP    WIND        PRES
                       AIR SEA DIR/SP/G
                 (UTC) (F)     (DEG/KT/KT) (MB)
THOMAS PT LIGHT  1700                        N/A
BALT KEY BRIDGE  1600   50     210/ 14/ 17 1012.0F
COVE POINT       1600   49     250/ 14/ 18 1012.7F
LEWISETTA        1600   48 42              1013.1F
SOLOMONS ISLAND  1600      43                N/A
PINEY POINT      1600          250/  5/  7   N/A

$$




USA.gov is the U.S. government's official web portal to all federal, state and local government web resources and services.